Location: Asheville, NC
(35.6000°N, 82.5500°W)
Time: 01:28:11
(UTC-04:00)

HO-68 - Pass Details

Date: 08 January 2018
Orbit: 1193 x 1204 km, 100.1° (Epoch: 25 April)

Event Time Altitude Azimuth Distance (km) Brightness Sun altitude
Rises 19:15:21 0° 178° (S) 4,087 ? -20.1°
Reaches altitude 10° 19:18:03 10° 183° (S) 3,125 ? -20.7°
Maximum altitude 19:24:58 52° 259° (W) 1,451 ? -22.0°
Drops below altitude 10° 19:31:56 10° 335° (NNW) 3,134 ? -23.4°
Sets 19:34:39 0° 340° (NNW) 4,100 ? -24.0°
